Theta_e
319 317 328 333 339 338 340 342 342 342 344 346 346 346 348 348 348 353 348 346 347 350 349 345 345 345 344 341 337 331 332 334 334 333 331 329 327 326 322 316 314 314 315 317 317 317 316 315 313
317 319 328 331 337 338 339 341 342 343 347 346 346 345 345 349 343 350 348 346 347 350 350 347 345 345 345 341 333 330 328 328 328 328 328 326 324 318 314 314 315 316 317 317 317 316 316 317 318
316 323 329 335 337 338 338 339 343 344 345 344 343 344 345 349 343 349 349 346 347 348 349 346 344 345 343 338 334 329 328 328 328 327 326 320 314 313 314 316 317 317 317 317 317 318 319 320 320
323 325 328 334 335 334 335 339 342 344 344 343 342 344 347 348 347 349 348 347 345 346 347 342 343 342 341 334 336 337 328 327 327 326 319 314 313 314 316 317 317 318 318 318 319 320 321 322 322
321 325 331 333 334 332 331 334 343 344 344 345 343 343 347 347 349 347 345 343 342 344 347 342 342 339 337 330 334 335 328 329 324 315 313 313 315 316 317 317 318 319 319 320 320 322 323 324 324
324 324 331 334 332 328 331 332 341 343 346 345 343 344 347 345 346 343 341 341 340 342 344 345 337 335 334 333 334 334 332 324 314 313 313 315 316 317 318 319 319 320 320 321 322 323 324 324 324
325 328 331 330 331 331 335 338 341 344 346 346 344 348 346 347 347 342 341 341 341 342 342 341 340 338 333 333 336 334 328 318 313 313 314 316 318 319 319 320 321 321 322 322 323 323 323 324 323
323 327 330 328 329 339 339 341 343 344 344 343 344 347 347 345 342 342 342 341 343 343 344 340 338 338 337 337 336 335 326 315 314 314 316 318 320 320 321 322 322 322 322 323 323 324 324 323 323
322 328 328 327 329 336 340 343 344 345 348 348 347 347 346 343 341 342 341 342 343 339 338 338 339 334 336 337 336 334 325 314 314 319 320 322 329 327 324 326 323 323 323 324 324 324 324 323 324
326 329 326 332 329 339 342 342 343 345 347 347 345 343 344 343 343 341 340 339 338 337 337 337 337 336 335 335 335 335 331 323 327 329 330 330 329 329 328 328 324 324 324 324 324 324 324 324 323
334 338 333 332 337 340 344 345 344 345 347 345 345 341 340 340 340 338 337 336 336 336 337 337 336 334 337 337 335 335 326 321 327 329 330 331 331 330 330 331 332 331 328 328 326 326 326 323 321
339 337 336 335 336 340 343 343 342 344 342 339 336 336 337 339 336 337 336 335 336 333 333 334 334 334 332 335 336 334 329 325 324 328 329 331 331 331 331 330 330 330 329 328 327 326 323 321 320
339 339 338 339 340 341 341 341 340 339 338 336 334 333 333 333 334 334 333 332 331 331 330 331 330 329 330 333 331 329 325 325 327 328 327 328 330 331 330 330 329 328 327 326 325 322 322 320 320
338 339 339 339 340 340 340 339 338 337 338 336 333 332 331 332 331 330 331 331 331 329 329 328 327 328 328 327 327 327 325 326 327 327 326 326 326 327 328 326 326 326 324 322 322 323 321 320 320
338 340 339 339 339 340 339 341 338 335 336 336 334 333 330 329 330 329 330 330 329 329 329 328 327 328 327 325 325 323 323 322 324 324 324 324 324 324 323 323 323 323 324 324 322 321 319 320 318
333 333 338 341 340 339 339 342 336 336 336 335 334 333 330 329 328 328 328 328 328 327 327 326 325 326 324 324 325 324 324 325 324 324 324 324 324 324 324 324 323 323 323 322 321 321 318 315 313
332 337 339 340 341 340 341 340 334 334 335 335 334 332 330 327 327 327 327 326 324 323 321 320 321 320 319 319 319 319 318 318 320 321 321 321 321 322 322 321 321 322 322 322 321 319 315 313 315
335 338 340 341 340 341 340 337 334 333 335 334 333 331 327 326 326 325 324 323 321 320 317 315 315 312 317 317 317 317 316 318 317 316 315 313 314 314 315 316 318 318 318 320 320 318 315 315 313
333 337 340 340 337 338 339 338 335 333 332 331 329 328 328 326 324 323 324 324 324 322 320 318 317 315 315 315 314 314 314 315 316 317 317 318 316 315 315 315 317 316 315 316 316 315 314 314 315
334 337 340 339 338 338 338 337 333 332 331 330 329 329 328 329 328 325 324 322 322 320 319 318 318 317 316 313 313 313 314 314 314 314 313 313 312 312 313 314 315 316 317 316 316 316 315 311 313
331 332 337 336 338 337 337 339 335 332 330 330 330 329 329 329 327 326 324 322 320 319 319 319 318 317 315 311 311 311 312 312 312 311 311 312 313 313 313 312 313 314 315 316 315 315 314 315 315
331 328 332 337 337 335 337 333 339 336 332 329 330 330 329 328 326 323 321 321 320 319 318 318 317 316 314 312 311 312 311 311 311 311 311 310 311 312 312 312 312 313 314 313 313 313 314 315 314
331 331 332 335 335 334 337 336 338 336 335 331 330 328 328 326 324 321 320 319 319 318 318 318 316 314 312 312 312 311 311 310 310 310 310 310 310 311 312 311 312 312 313 314 312 313 312 314 314
332 333 332 335 332 331 334 333 337 336 335 333 330 328 327 324 321 320 320 319 319 317 317 315 313 312 312 311 311 311 310 310 310 311 310 309 309 311 310 310 310 310 310 312 311 311 311 312 312
330 331 330 329 328 329 334 330 340 334 332 331 330 327 324 322 319 318 320 319 318 316 314 311 312 312 312 311 311 310 310 310 310 310 310 310 310 310 310 308 309 309 310 311 311 311 310 312 312
329 329 330 327 327 327 331 332 337 330 329 329 327 324 321 319 318 318 320 318 316 314 311 311 312 311 310 310 310 310 310 309 309 309 309 309 310 310 309 309 308 309 309 310 310 311 311 310 310
329 328 326 327 327 327 328 335 330 327 327 326 324 323 319 318 319 318 319 316 312 312 311 312 311 310 310 309 309 309 307 308 308 307 306 308 307 307 309 309 309 308 309 309 309 309 308 310 310
327 326 326 326 326 324 325 331 333 330 328 326 324 320 320 320 318 318 315 313 311 311 311 310 310 308 309 309 308 308 307 306 305 305 306 305 305 306 308 308 307 307 308 307 308 308 309 310 309
326 325 326 327 327 329 330 335 328 329 328 327 324 322 321 319 318 314 311 310 311 311 310 310 309 307 308 308 307 306 305 304 305 305 304 304 305 306 306 306 306 306 307 307 307 308 308 308 308
328 329 330 332 332 331 331 334 327 326 325 325 323 321 319 317 313 311 311 311 310 310 310 309 309 309 309 307 305 303 305 304 304 302 302 303 304 305 305 305 304 304 305 306 306 307 306 306 306
Wind_Speed
7 8 2 4 6 3 12 10 1 7 8 7 6 4 12 17 11 5 5 9 12 10 10 11 10 9 10 10 10 11 12 12 12 12 11 11 11 12 14 15 14 12 11 10 10 10 10 12 13
5 4 3 8 6 12 10 6 9 9 10 10 9 6 8 15 15 10 8 8 12 9 10 9 8 7 6 7 10 11 11 11 10 10 10 11 13 14 14 13 12 11 10 10 10 11 12 13 14
3 1 6 4 3 11 10 7 9 10 6 1 6 12 7 10 12 6 8 11 10 7 7 8 6 5 6 7 9 10 10 10 10 11 13 14 15 14 14 13 11 10 10 10 10 10 11 12 13
2 4 5 8 9 10 9 7 9 12 7 5 8 12 11 12 6 6 9 11 9 7 6 6 5 5 5 6 6 7 8 10 11 13 15 15 14 13 12 11 10 8 7 7 8 9 11 14 16
3 5 4 4 13 9 2 2 9 10 9 8 5 10 13 11 12 10 11 11 10 7 4 6 4 3 4 6 7 6 8 11 13 14 14 14 13 13 11 9 7 6 5 5 6 10 13 14 16
7 4 7 10 11 9 6 1 7 5 10 10 14 12 10 7 10 12 10 9 7 5 5 5 2 4 4 6 7 7 9 12 14 15 14 13 12 11 9 7 5 3 3 3 5 9 13 15 17
6 6 7 6 9 10 6 4 5 7 11 14 5 10 9 8 11 11 9 8 8 5 5 4 5 3 4 7 6 8 11 13 15 14 13 11 9 8 7 5 3 2 0 4 7 10 14 16 18
4 5 6 5 7 13 5 9 11 10 9 7 5 5 9 10 11 10 9 9 6 7 4 5 3 4 6 5 7 10 11 12 13 12 12 9 7 6 4 3 3 3 5 7 8 11 14 18 21
4 5 6 9 8 9 4 12 12 13 19 20 14 16 18 14 13 9 11 8 8 6 5 5 2 4 4 4 5 3 8 12 11 10 10 7 4 3 3 6 8 7 10 10 11 13 15 19 21
5 5 8 9 6 10 11 12 12 10 18 18 22 19 17 13 11 10 9 7 4 2 3 4 3 1 2 2 5 10 7 7 9 8 8 7 8 7 7 9 11 12 13 13 13 14 16 14 13
7 6 5 8 11 13 19 20 7 16 12 13 15 17 16 13 13 12 11 8 5 4 4 6 6 6 3 4 5 7 9 8 7 7 7 9 8 8 9 10 9 9 12 8 11 11 11 14 13
11 17 10 5 7 6 13 17 25 20 13 16 17 16 14 13 14 12 9 9 10 9 9 8 6 5 3 1 1 3 5 5 6 8 8 8 9 11 11 12 13 11 11 10 10 11 13 17 13
17 14 19 19 21 22 23 22 18 19 17 18 17 18 18 16 14 13 12 11 11 11 13 15 13 10 7 3 2 3 5 3 3 4 8 10 8 9 8 9 8 9 7 7 9 14 19 15 13
15 22 19 15 12 17 21 17 7 10 11 16 18 17 17 16 15 15 13 13 13 13 14 14 15 15 12 8 4 4 2 3 4 5 6 8 6 12 7 13 12 17 13 13 17 23 18 11 13
24 16 14 10 10 18 10 18 10 9 10 16 15 16 16 17 13 12 10 10 12 12 12 12 12 14 14 12 12 10 8 7 7 8 10 11 11 12 12 14 17 18 20 23 25 22 12 12 11
8 5 5 6 4 2 6 4 6 5 10 13 15 15 15 14 12 12 12 12 13 13 13 14 14 13 12 12 12 12 12 13 14 14 15 17 19 21 19 21 21 20 24 24 21 17 14 9 10
7 6 11 8 3 0 4 8 4 4 6 9 11 13 14 15 13 11 12 14 15 14 16 16 16 15 14 13 11 13 13 12 12 13 14 15 16 14 13 13 14 15 16 19 18 16 9 6 14
11 8 6 6 8 8 12 10 7 5 4 8 11 12 13 12 13 13 13 15 14 14 17 17 18 19 15 14 13 13 13 14 16 12 14 14 13 14 15 16 16 19 17 20 16 13 9 13 7
8 10 12 9 6 5 8 9 7 7 7 9 8 7 8 10 10 10 13 10 11 12 14 17 17 19 17 15 15 15 15 14 13 12 12 9 10 11 12 13 13 16 15 18 17 16 5 5 7
8 9 8 6 4 4 7 6 7 5 9 8 7 8 7 7 9 8 9 9 10 11 13 15 16 17 17 18 16 16 15 12 10 11 12 12 13 11 11 11 10 13 15 17 14 11 6 7 8
3 7 6 2 8 4 9 11 10 9 8 7 6 6 6 7 7 7 7 8 10 12 13 15 16 16 17 22 16 15 13 13 12 14 14 14 14 12 11 11 11 12 11 14 11 11 10 8 9
2 3 5 10 10 5 13 5 15 15 10 9 7 6 5 5 4 6 6 7 9 11 13 14 14 17 17 17 17 16 16 17 16 15 15 17 15 15 11 11 11 11 10 13 10 10 10 10 10
6 1 5 10 11 6 14 6 10 11 10 10 8 5 5 4 3 6 8 9 8 9 13 13 13 15 15 17 18 17 17 17 16 17 17 15 15 12 11 9 11 11 10 11 9 10 10 11 9
7 2 5 9 8 12 8 4 9 3 5 2 12 8 7 5 4 6 8 9 9 11 12 13 14 15 17 19 17 17 18 17 16 16 17 16 15 14 11 10 10 10 8 9 9 9 9 10 9
6 8 11 9 7 6 6 6 11 15 11 10 11 11 8 6 7 7 8 11 10 9 11 14 15 18 20 19 16 17 18 17 16 17 16 17 15 14 12 12 11 10 8 8 8 8 9 9 8
4 8 8 13 11 12 5 4 5 8 8 7 10 10 8 3 5 8 9 10 11 13 14 15 17 20 20 17 18 17 17 16 15 15 16 16 15 13 13 10 9 9 8 8 9 7 6 6 6
9 6 7 10 12 9 3 11 8 5 4 4 5 5 2 3 5 8 10 8 10 13 15 17 18 18 19 18 17 16 18 15 15 17 18 15 15 14 12 9 9 9 8 9 10 8 7 5 5
9 5 7 5 7 9 2 6 6 10 3 3 5 3 3 3 5 6 6 11 12 13 17 16 16 16 17 17 15 16 18 20 22 21 20 17 16 14 11 9 9 7 8 10 12 12 8 5 3
8 7 5 4 4 6 7 5 4 7 5 2 3 1 3 2 4 5 8 12 14 17 17 14 16 17 16 17 17 20 21 21 18 15 15 15 12 9 8 9 11 7 7 9 10 9 12 10 8
8 7 6 5 3 4 5 4 5 6 6 5 5 6 5 5 5 8 11 15 18 18 14 15 15 16 16 15 20 18 16 17 17 15 13 12 5 4 6 8 10 9 8 7 6 7 6 6 5
Wind_Direction
330 331 301 263 224 125 88 82 154 82 66 47 59 14 51 34 15 45 123 147 139 157 172 169 180 184 169 168 173 176 179 180 179 174 164 155 144 137 136 135 131 123 115 100 84 73 64 56 49
304 321 276 278 259 98 82 135 83 74 93 96 85 88 50 76 45 92 120 136 139 145 153 176 181 193 175 164 172 174 181 183 179 165 155 147 144 143 139 135 130 121 109 97 82 68 55 47 41
308 308 268 285 334 79 100 103 112 112 125 201 102 57 35 12 37 88 134 138 137 137 149 180 180 197 189 182 171 175 179 180 172 156 149 150 149 146 141 134 128 122 112 97 84 68 49 31 23
244 233 236 253 100 88 93 116 133 146 103 81 87 81 87 36 39 90 108 129 125 125 146 169 177 199 200 182 170 173 172 167 160 157 158 157 153 148 140 138 139 128 110 93 71 51 32 19 11
255 244 226 157 94 96 91 98 170 160 108 103 85 93 87 45 95 93 103 111 120 126 134 155 173 191 200 178 176 176 163 159 160 161 161 159 156 155 153 145 134 126 113 93 66 40 19 14 9
228 272 220 123 95 90 65 203 197 101 105 103 91 91 75 80 106 99 103 110 116 128 97 98 149 182 178 177 177 177 164 161 163 165 165 165 163 158 151 147 143 130 116 76 36 7 3 359 356
291 258 85 105 119 70 71 113 162 129 99 58 97 77 108 98 100 103 103 107 104 109 103 162 150 154 166 166 166 179 171 173 172 171 172 173 170 168 168 171 169 176 350 348 344 343 344 346 344
295 274 150 58 67 68 84 90 75 63 59 88 26 117 136 126 111 107 108 101 96 86 87 97 101 146 165 164 174 191 186 179 178 179 181 184 190 196 207 229 239 268 295 309 316 326 331 339 336
293 242 91 46 32 90 115 106 89 86 83 69 70 91 121 119 118 120 112 119 84 75 70 54 30 152 162 181 199 198 200 190 183 184 188 180 186 197 259 239 267 277 286 294 304 318 326 331 338
308 28 46 18 40 84 76 93 112 118 90 81 84 94 106 113 109 119 112 99 115 86 85 71 33 217 249 235 207 181 171 191 187 188 193 194 218 219 221 256 271 277 284 293 301 315 320 336 326
54 10 330 37 102 100 93 68 103 119 70 86 103 102 102 102 115 100 93 91 72 51 31 38 9 5 324 324 278 277 222 222 213 214 212 235 236 256 265 261 284 280 293 299 313 316 307 312 315
103 52 69 77 112 93 85 90 67 72 84 88 88 91 103 100 95 103 91 78 69 63 47 45 24 18 7 25 333 181 209 220 215 237 241 256 263 270 264 263 258 266 267 265 295 294 305 312 312
104 84 85 93 95 89 87 75 83 73 85 89 84 82 80 83 80 80 89 87 73 64 57 51 46 48 37 16 323 245 226 233 261 273 263 254 259 261 265 247 243 249 255 264 267 281 297 308 304
114 108 97 98 97 93 88 74 74 68 88 83 79 77 82 86 87 93 91 86 74 63 54 47 42 39 37 35 39 52 43 24 338 326 313 282 259 245 230 227 212 222 236 262 280 295 296 286 295
130 119 98 92 122 125 99 60 74 87 90 88 87 86 83 86 93 96 87 84 75 66 46 42 37 22 15 17 7 1 332 297 266 265 280 278 271 259 257 253 255 266 272 285 300 287 289 287 288
169 220 145 60 183 11 242 112 56 101 100 91 98 101 94 92 86 86 76 70 69 62 53 40 34 28 20 17 3 348 334 316 302 302 300 292 283 276 282 282 283 279 279 275 272 260 258 290 301
200 93 119 86 36 154 308 127 139 111 117 109 98 100 93 83 77 75 76 70 63 57 55 51 45 34 20 8 358 352 347 336 321 311 302 302 293 282 284 290 300 298 278 270 271 262 257 268 299
123 128 89 88 57 86 93 124 131 146 151 123 115 93 88 81 85 81 75 68 61 57 52 47 39 27 23 17 8 354 345 348 336 332 329 326 325 322 309 293 286 283 282 284 287 273 256 291 294
87 104 112 112 106 96 129 145 152 155 147 118 110 104 116 97 83 73 59 65 63 56 49 38 30 20 18 3 356 346 337 336 331 330 337 334 328 321 312 309 300 292 282 273 271 273 231 274 274
105 119 113 115 179 222 157 141 145 178 129 136 133 123 109 107 97 78 67 59 58 51 45 35 23 13 9 360 355 352 344 339 335 330 328 322 323 321 318 308 299 289 282 279 265 255 227 281 265
54 18 168 55 160 162 176 182 179 161 151 147 135 156 127 117 106 84 62 47 36 32 25 17 10 4 359 356 350 352 350 343 334 331 329 321 320 316 310 304 304 295 296 277 270 253 250 258 264
63 4 189 166 199 324 203 332 187 165 177 193 190 169 148 125 85 90 69 35 23 19 10 5 1 355 351 353 350 347 344 337 331 331 323 330 320 311 306 303 300 297 296 296 271 254 251 250 269
51 199 216 201 243 263 184 256 99 162 187 189 202 161 138 96 69 58 36 13 8 5 0 357 356 351 351 348 343 342 334 330 325 324 325 324 324 326 307 312 300 290 293 286 280 250 250 259 267
130 175 233 219 252 251 94 281 74 73 292 140 154 130 114 91 61 39 23 359 356 352 349 348 347 345 341 339 335 334 333 327 326 325 332 325 325 317 322 328 322 316 310 308 304 284 275 263 262
241 300 311 289 283 333 80 276 41 45 38 29 132 120 97 82 18 323 334 347 340 345 348 348 338 335 333 332 329 328 324 326 325 328 328 326 321 308 321 330 325 325 326 327 324 307 279 272 262
338 329 322 311 320 324 151 356 66 34 41 60 86 110 111 3 283 296 316 336 340 341 342 343 335 331 333 329 322 324 324 327 326 328 330 328 327 322 319 321 328 339 342 343 340 326 313 283 266
353 331 337 285 267 261 63 106 105 107 68 69 110 116 131 261 278 307 324 337 347 333 341 337 335 336 335 333 332 331 334 334 330 326 324 323 329 331 334 342 356 353 7 15 6 350 328 282 265
12 1 309 288 296 314 93 64 36 11 81 148 148 155 248 279 314 330 346 342 350 344 336 337 343 339 337 340 344 344 341 333 321 314 314 313 315 329 339 348 342 1 17 26 37 27 43 79 90
347 359 330 284 317 316 329 71 36 6 20 104 104 145 35 2 6 10 346 358 341 335 334 344 341 340 338 343 346 342 339 339 339 331 326 325 311 327 1 22 21 7 18 28 30 30 54 53 74
50 13 348 320 27 348 280 72 32 23 41 46 53 74 58 48 30 5 349 340 336 335 344 338 339 341 344 350 346 351 355 360 355 350 342 340 340 350 4 5 9 10 15 15 4 10 22 43 29